Aérodrome :
LOGIN :

S'inscrire | Disclaimer

   EN    FR    IT 

 










Légende :    VFR   VFR Marginal   IFR   IFR Intensif   IFR Très Intensif
Visi : 
Plafond : 
>= 8 km
>= 3000ft
5 à 8 km
1000 à 3000 ft
1500m à 5 km
500 à 1000 ft
800 à 1500m
200 à 500 ft
< 800m
< 200 ft
Symboles :   Orages  Brouillard  Fortes neiges  Fortes précipitations  Vent > 20 kt
SIGMETs :   Divers  Orages  Givrage  Turbulence  Onde Orograph.  Cendres Volcan.







- Altitude de l'aérodrome : 697 ft
- Code IATA : PEG


LIRZ - San Edigio Perugia

DERNIER METAR :
  • 230513Z AUTO VRB01KT 4900 -RA BR OVC014/// 03/02 Q0998

METARs EXPIRÉS :
  • 230456Z AUTO 15002KT 6000 DZ OVC017/// 03/02 Q0998
  • 230350Z AUTO 28003KT 3900 -RA BR OVC011/// 02/02 Q0998
  • 230313Z AUTO VRB01KT 3300 DZ BR OVC012/// 03/02 Q0999

TAF TAF LIRZ
Valide du 23 à 06h jusqu'au 24 à 06h UTC


230500Z 2306/2406 VRB05KT 7000 SCT030
TEMPO 2315/2318 RA
BECMG 2402/2404 02010KT
Pas de NOTAMs connus pour ce terrain.



MET'MAP, la Météo Aéronautique d'un coup d'oeil ! - Copyright ORBIFLY Décembre 2007 - Disclaimer

ORBIFLY MET'MAP TEAM :

Programmation & Développement : Alexandra Zaïnal
Conception & Développement : Baudouin d'Aumeries
Co-Programmation & Développement : Marc-Olivier Méhu
Soutien technique & logistique : Manuel Goepfert

Contact : metmap@orbifly.com




SOURCES & CREDITS :

   NOAA